Location: Unspecified
(34.1812°N, 0.0000°E)
Time: 20:10:56
(UTC+00:00)

Transit 4A - Visible Passes

Search period start: 04 April 2026 00:00
Search period end: 14 April 2026 00:00
Orbit: 863 x 978 km, 66.8° (Epoch: 29 March)

Date Brightness Start Highest point End Pass type
(mag) Time Alt. Az. Time Alt. Az. Time Alt. Az.
4 Apr 10.0 01:50:48 10° N 01:53:16 22° N 01:53:16 22° N visible
4 Apr 10.7 18:43:00 10° WNW 18:46:04 14° NW 18:49:11 10° NNW visible
5 Apr 10.1 01:59:16 10° NNW 02:00:46 18° N 02:00:46 18° N visible
6 Apr 10.7 00:24:04 10° NNE 00:25:07 12° NNE 00:25:07 12° NNE visible
6 Apr 10.3 02:07:54 10° NNW 02:08:32 13° NNW 02:08:32 13° NNW visible
7 Apr 10.5 00:31:43 10° N 00:33:03 14° NNE 00:33:03 14° NNE visible
8 Apr 10.5 00:39:49 10° N 00:41:06 15° N 00:41:06 15° N visible
9 Apr 10.4 00:48:10 10° N 00:49:13 15° N 00:49:13 15° N visible
10 Apr 10.5 00:56:41 10° NNW 00:57:24 13° NNW 00:57:24 13° NNW visible
10 Apr 10.6 23:21:10 10° NNE 23:22:11 12° NNE 23:22:11 12° NNE visible
11 Apr 10.6 01:05:20 10° NNW 01:05:38 11° NNW 01:05:38 11° NNW visible
11 Apr 10.4 23:28:58 10° N 23:30:28 15° NNE 23:30:28 15° NNE visible
12 Apr 10.4 23:37:10 10° N 23:38:46 17° N 23:38:46 17° N visible
13 Apr 10.3 23:45:33 10° NNW 23:47:07 18° N 23:47:07 18° N visible
